[[{"header":{"parameterUnit":"m.s-1","parameterCategory":1,"la1":30.2992,"la2":30.254,"lo1":-89.0895,"lo2":-89.0443,"dy":0.0025,"dx":0.0025,"nx":19,"ny":19,"refTime":"2026-04-15T03:00:00:Z","depth":0,"parameterNumber":2,"parameterNumberName":"U-component_of_WINDS"},"data":[0,0,0,-2.9846,-2.9849,-3.0,-3.0001,-3.0197,-3.0198,0,0,0,0,0,0,0,0,0,0,0,-2.9801,-2.9802,-2.9846,-2.9849,-3.0,-3.0001,-3.0196,-3.0198,0,0,0,0,0,0,0,0,0,0,0,-2.9801,-2.9802,-2.9804,-2.985,-3.0,-3.0001,-3.0196,-3.0081,0,0,0,0,0,0,0,0,0,0,-2.9935,-2.9893,-2.9802,-2.9804,-2.9851,-3.0,-3.0001,-3.0076,-3.0089,-3.0129,0,-3.0163,0,-3.0184,-3.0212,-3.0212,0,0,0,-2.985,-2.9882,-2.9923,-2.9804,-2.9852,-2.9999,-2.9932,-3.0083,-3.0097,-3.0146,-3.0166,-3.0174,-3.0187,-3.0213,-3.0214,-3.0443,-3.0444,0,0,-2.9841,-2.9829,-2.9913,-2.9932,-2.9907,-2.9927,-2.9937,-3.0092,-3.0113,-3.0167,-3.0178,-3.0191,-3.0214,-3.0216,-3.0442,-3.0443,0,0,0,-2.9817,-2.9823,-2.986,-2.9924,-2.9951,-2.9932,-2.9943,-3.0107,-3.012,-3.018,-3.0193,-3.0215,-3.0218,-3.0441,-3.0442,-3.048,0,0,0,-2.9812,-2.9809,-2.9856,-2.9849,-2.9948,-3.003,-2.9954,-3.0109,-3.0127,-3.0192,-3.0215,-3.022,-3.044,-3.0442,-3.0477,-3.05,0,0,0,-2.9791,-2.9806,-2.9828,-2.9848,-2.9913,-3.0028,-3.005,-3.0113,-3.0135,-3.0212,-3.022,-3.0439,-3.0441,-3.0474,-3.0495,-3.0556,0,0,0,-2.9766,-2.986,-2.9828,-2.9939,-2.9911,-3.005,-3.0049,-3.0154,-3.0225,-3.0216,-3.044,-3.0442,-3.0473,-3.0492,-3.0553,-3.0604,-3.0625,0,0,-2.9877,-2.9873,-2.9939,-2.9915,-3.0056,-3.0028,-3.0176,-3.0254,-3.0275,-3.0386,-3.0392,-3.0478,-3.0495,-3.0556,-3.0746,-3.0762,0,0,0,-2.997,-3.0017,-3.0058,-3.0124,-3.0186,-3.0242,-3.0299,-3.0329,-3.0424,-3.0329,-3.0518,-3.0528,-3.0564,-3.059,-3.0603,-3.0635,-3.0454,-3.0453,-3.0453,-3.0108,-3.0129,-3.024,-3.0279,-3.0345,-3.0404,-3.0459,-3.0509,-3.0511,-3.0556,-3.0588,-3.0701,-3.073,-3.0741,-3.0774,-3.0618,-3.0618,-3.0619,-3.0619,-3.0273,-3.0343,-3.0345,-3.0452,-3.0475,-3.0567,-3.0629,-3.0627,-3.0717,-3.0678,-3.0711,-3.0665,-3.0758,-3.0788,-3.0622,-3.0621,-3.0621,-3.0621,-3.062,-3.0364,-3.0402,-3.0436,-3.0536,-3.0611,-3.0649,-3.0735,-3.0753,-3.0771,-3.0804,-3.084,-3.084,-3.0841,-3.082,-3.0821,-3.0821,-3.0821,-3.0822,-3.0822,-3.0445,-3.0483,-3.0552,-3.0627,-3.0673,-3.0737,-3.0799,-3.0846,-3.0902,-3.0908,-3.0909,-3.0906,-3.0763,-3.0726,-3.0828,-3.0827,-3.0826,-3.0826,-3.0825,-3.0602,-3.0569,-3.0676,-3.0723,-3.0814,-3.0888,-3.0911,-3.1005,-3.1046,-3.1089,-3.1081,-3.0972,-3.0969,-3.0958,-3.0927,-3.1076,-3.1076,-3.1076,-3.1076,-3.0678,-3.0678,-3.0793,-3.0866,-3.094,-3.0971,-3.1094,-3.1145,-3.1193,-3.122,-3.1202,-3.1164,-3.1152,-3.1156,-3.1141,-3.1112,-3.1304,-3.1305,-3.1305,-3.0775,-3.0784,-3.0883,-3.0928,-3.1002,-3.1064,-3.1181,-3.1267,-3.1314,-3.1315,-3.1242,-3.1233,-3.1171,-3.115,-3.1145,-3.1121,-3.107,0,0]},{"header":{"parameterUnit":"m.s-1","parameterCategory":1,"la1":30.2992,"la2":30.254,"lo1":-89.0895,"lo2":-89.0443,"dy":0.0025,"dx":0.0025,"nx":19,"ny":19,"refTime":"2026-04-15T03:00:00:Z","depth":0,"parameterNumber":3,"parameterNumberName":"V-component_of_WINDS"},"data":[0,0,0,2.6704,2.6702,2.6606,2.6606,2.6487,2.6487,0,0,0,0,0,0,0,0,0,0,0,2.6736,2.6735,2.6704,2.6702,2.6606,2.6606,2.6488,2.6486,0,0,0,0,0,0,0,0,0,0,0,2.6736,2.6736,2.6735,2.6702,2.6606,2.6606,2.6488,2.6558,0,0,0,0,0,0,0,0,0,0,2.6651,2.6684,2.6736,2.6735,2.6701,2.6606,2.6605,2.6562,2.6554,2.6533,0,2.6517,0,2.65,2.6479,2.6479,0,0,0,2.6698,2.669,2.6662,2.6735,2.67,2.6606,2.6648,2.6557,2.6549,2.6523,2.6515,2.6511,2.6498,2.6478,2.6478,2.6375,2.6375,0,0,2.6704,2.672,2.6668,2.6656,2.6673,2.6651,2.6645,2.6552,2.6544,2.6515,2.6508,2.6496,2.6478,2.6477,2.6376,2.6375,0,0,0,2.6721,2.6724,2.6697,2.6661,2.6644,2.6649,2.6642,2.6548,2.6538,2.6507,2.6495,2.6477,2.6476,2.6376,2.6376,2.6376,0,0,0,2.6724,2.6734,2.67,2.6709,2.6646,2.6595,2.664,2.6544,2.6533,2.6496,2.6477,2.6474,2.6376,2.6376,2.6377,2.6373,0,0,0,2.6741,2.6736,2.6724,2.671,2.667,2.6596,2.658,2.6542,2.6526,2.6479,2.6474,2.6376,2.6376,2.6378,2.6374,2.6351,0,0,0,2.6763,2.6724,2.6724,2.6676,2.6671,2.6598,2.6581,2.6525,2.6485,2.6476,2.6376,2.6376,2.6378,2.6374,2.6352,2.6334,2.6329,0,0,2.6722,2.6719,2.669,2.6688,2.662,2.6612,2.6543,2.6489,2.6468,2.6407,2.6405,2.6377,2.6374,2.6351,2.6295,2.6291,0,0,0,2.6683,2.6662,2.664,2.6604,2.6564,2.6529,2.6484,2.6465,2.6413,2.6441,2.6363,2.636,2.6346,2.6337,2.6334,2.6321,2.6372,2.6373,2.6373,2.6646,2.6625,2.6576,2.6544,2.6509,2.6466,2.6435,2.6402,2.6388,2.637,2.6351,2.632,2.631,2.6307,2.6294,2.6341,2.6341,2.6341,2.6341,2.6584,2.6551,2.6539,2.6486,2.6465,2.642,2.6378,2.6371,2.6325,2.6332,2.6318,2.6326,2.6303,2.6291,2.6341,2.6341,2.6341,2.6341,2.6341,2.6557,2.6537,2.6517,2.6465,2.6427,2.6396,2.6355,2.6336,2.6318,2.6305,2.6283,2.6283,2.628,2.6297,2.6297,2.6296,2.6296,2.6296,2.6296,2.6535,2.6513,2.6481,2.6439,2.6415,2.638,2.634,2.6315,2.6283,2.6273,2.6272,2.6261,2.6306,2.6317,2.6294,2.6295,2.6295,2.6295,2.6295,2.6477,2.6489,2.6439,2.6416,2.6366,2.6331,2.631,2.6262,2.6239,2.6219,2.6213,2.625,2.6244,2.6246,2.6255,2.6218,2.6218,2.6218,2.6218,2.6453,2.645,2.6397,2.6361,2.6323,2.6301,2.6246,2.6216,2.6185,2.617,2.6174,2.6185,2.6189,2.618,2.6184,2.6192,2.614,2.614,2.614,2.6416,2.641,2.6366,2.6339,2.6301,2.6268,2.6216,2.6175,2.6143,2.6136,2.6158,2.6161,2.6179,2.6186,2.6176,2.6183,2.6197,0,0]}]]